Location: Newark
(34.1333°N, 7.9667°W)
Time: 07:30:38
(UTC+00:00)

S-56A Canister/Altair - Pass Details

Date: 08 December 2021
Orbit: 634 x 2499 km, 38.9° (Epoch: 25 January)

Event Time Altitude Azimuth Distance (km) Brightness Sun altitude
Rises 20:12:09 0° 208° (SSW) 6,161 12.5 -34.3°
Reaches altitude 10° 20:16:49 10° 201° (SSW) 5,094 11.9 -35.3°
Enters shadow 20:27:39 35° 155° (SSE) 3,156 10.3 -37.5°
